Back to catalog

GLOBALSTAR M059

AliveCommunicationsLEO
NORAD 25944·PAYLOAD·🇺🇸 United States

Launched Oct 18, 1999 from Baikonur Cosmodrome

Loading…

Next Passes (next 24 hours)

TLE

FreshSource: Space-Track

Epoch: Sep 14, 2026, 11:09 UTC

1 25944U 99058B   26257.46460500 -.00000070  00000-0  20229-3 0  9998
2 25944  52.0019  58.1737 0001084  99.0331 293.7641 12.00002154628588

Track GLOBALSTAR M059 in real time with AllMySat

Download on the App Store